Location: Igon
(43.1667°N, 0.2333°W)
Time: 14:37:24
(UTC+00:00)

Cosmos 1680 Rocket - Pass Details

Date: 29 November 2020
Orbit: 760 x 781 km, 74.1° (Epoch: 22 January)

Event Time Altitude Azimuth Distance (km) Brightness Sun altitude
Exits shadow 06:00:20 14° 317° (NW) 2,102 5.2 -12.6°
Maximum altitude 06:04:16 32° 260° (W) 1,316 4.3 -12.0°
Drops below altitude 10° 06:08:55 10° 198° (SSW) 2,323 6.0 -11.2°
Sets 06:11:29 0° 189° (S) 3,244 6.9 -10.7°
